This is the latest recevied weather packets stored in our database for station/object KF0FSA. If no packets are shown the sender has not sent any weather packets the latest 10 day(s).
| Time | Temp. | Humidity | Pressure | Rain* | Wind** | Luminosity | Snow |
|---|---|---|---|---|---|---|---|
| 1777931178 | 13.33° C | 40% | 953.7 hPa | 0 mm | - | 244 W/m² | - |
| 1777930877 | 13.33° C | 39% | 953.7 hPa | 0 mm | - | 248 W/m² | - |
| 1777930577 | 13.33° C | 40% | 953.6 hPa | 0 mm | - | 320 W/m² | - |
| 1777930277 | 13.33° C | 40% | 953.6 hPa | 0 mm | - | 319 W/m² | - |
| 1777930102 | 13.33° C | 39% | 953.7 hPa | 0 mm | - | 290 W/m² | - |
| 1777929675 | 13.33° C | 41% | 953.8 hPa | 0 mm | - | 190 W/m² | - |
| 1777929500 | 13.33° C | 39% | 953.9 hPa | 0 mm | - | 218 W/m² | - |
| 1777929074 | 13.33° C | 39% | 953.8 hPa | 0 mm | - | 295 W/m² | - |
| 1777928771 | 13.33° C | 40% | 953.8 hPa | 0 mm | - | 316 W/m² | - |
| 1777928472 | 13.89° C | 40% | 953.9 hPa | 0 mm | - | 272 W/m² | - |
| 1777928172 | 13.89° C | 39% | 953.7 hPa | 0 mm | - | 392 W/m² | - |
| 1777927872 | 13.89° C | 40% | 953.7 hPa | 0 mm | - | 341 W/m² | - |
| 1777927568 | 13.89° C | 41% | 953.8 hPa | 0 mm | - | 259 W/m² | - |
| 1777927269 | 13.89° C | 40% | 953.7 hPa | 0 mm | - | 408 W/m² | - |
| 1777926969 | 13.89° C | 40% | 953.6 hPa | 0 mm | - | 390 W/m² | - |
| 1777926670 | 13.89° C | 40% | 953.6 hPa | 0 mm | - | 341 W/m² | - |
| 1777926330 | 13.89° C | 39% | 953.6 hPa | 0 mm | - | 465 W/m² | - |
| 1777926030 | 14.44° C | 38% | 953.6 hPa | 0 mm | - | 407 W/m² | - |
| 1777925555 | 15.56° C | 37% | 953.4 hPa | 0 mm | - | 436 W/m² | - |
| 1777925254 | 16.11° C | 34% | 953.2 hPa | 0 mm | - | 524 W/m² | - |
| 1777924826 | 16.67° C | 36% | 952.9 hPa | 0 mm | - | 787 W/m² | - |
| 1777924525 | 16.11° C | 36% | 952.7 hPa | 0 mm | - | 879 W/m² | - |
| 1777924226 | 15.56° C | 34% | 952.8 hPa | 0 mm | - | 834 W/m² | - |
| 1777924051 | 15.56° C | 34% | 952.7 hPa | 0 mm | - | 807 W/m² | - |
| 1777923626 | 15.56° C | 35% | 952.8 hPa | 0 mm | - | 293 W/m² | - |
* Rain latest hour (hover to see other rain measurements)
** Current wind speed in m/s (hover to see current wind gust speed)